Temperature
18 18 18 18 18 18 18 18 18 18 18 18 18 18 18 18 18 18 18 18 18 18 18 17 17 17 17 17 17 16 16 16 16 16 16 16 16 16 16 16 16 16 16
18 18 18 18 18 18 18 18 18 18 18 18 18 18 18 18 18 18 18 18 18 18 18 17 17 17 17 17 17 17 16 16 16 16 16 16 16 16 16 16 16 16 16
18 18 18 18 18 18 18 18 18 18 18 18 18 18 18 18 18 18 17 18 18 18 17 17 17 17 17 17 17 17 17 16 16 16 16 16 16 16 16 16 16 16 16
19 18 18 18 18 18 18 18 18 18 18 18 18 18 18 18 18 18 18 17 17 17 17 17 17 17 17 17 17 17 17 17 16 16 16 16 16 16 16 16 16 16 16
19 19 18 18 18 18 18 18 18 18 18 18 18 18 18 18 18 18 18 18 17 17 17 17 17 17 17 17 17 17 17 17 17 16 16 16 16 16 16 16 16 16 16
19 19 18 18 18 18 18 18 18 18 18 18 18 18 18 18 18 18 18 18 18 17 17 17 17 17 17 17 17 17 17 17 17 16 16 16 16 16 16 16 16 16 16
19 19 18 18 18 18 18 18 18 18 18 18 18 18 18 18 18 18 18 18 18 18 18 17 17 17 17 17 17 17 17 17 17 16 16 16 16 16 16 16 16 16 16
18 18 18 18 19 18 18 18 18 18 18 18 18 18 18 19 19 19 19 18 18 18 18 17 17 17 17 17 17 17 17 17 17 17 16 16 16 16 16 16 16 16 16
18 18 18 18 18 18 18 18 18 18 18 18 18 18 18 19 19 19 19 19 19 18 18 18 18 18 17 17 17 17 17 17 17 17 16 16 16 16 16 16 16 16 16
18 18 18 18 18 18 18 18 18 18 18 18 18 18 19 19 19 19 19 19 19 19 18 18 18 18 18 17 17 17 17 17 17 17 16 16 16 16 16 16 16 16 16
18 18 18 18 18 18 18 18 18 18 18 18 18 18 18 18 19 19 19 19 19 19 19 19 18 18 18 17 17 17 17 17 17 17 17 16 16 16 16 16 16 16 16
18 18 18 18 18 18 18 18 18 18 18 18 18 18 18 18 18 19 19 19 19 19 19 19 19 18 18 18 18 17 17 17 17 17 17 17 16 16 16 16 16 16 16
18 18 18 18 18 18 18 18 18 18 18 18 18 18 18 18 18 19 19 19 19 19 19 19 19 19 18 18 18 18 18 17 17 17 17 17 17 16 16 16 16 16 16
18 18 18 18 18 18 18 18 18 18 18 18 18 18 18 18 18 18 19 19 19 19 19 19 19 19 18 18 18 18 18 18 17 17 17 17 17 16 16 16 16 16 16
18 18 18 18 18 18 18 18 18 18 17 17 18 18 18 18 18 18 18 18 18 18 18 19 19 19 18 18 18 18 18 17 17 17 17 17 17 16 16 16 16 16 16
18 18 18 17 18 17 18 17 17 18 17 17 17 17 17 17 18 18 18 18 18 18 18 18 18 18 18 18 18 18 17 17 17 17 17 17 17 17 16 16 16 16 16
18 17 17 17 17 17 17 17 17 17 17 17 17 17 17 17 17 17 18 18 18 18 18 18 18 18 18 18 18 17 17 17 17 17 17 17 17 16 16 16 16 16 16
17 17 17 17 17 17 17 17 17 17 17 17 17 17 17 17 17 17 17 17 17 17 17 17 17 17 17 17 17 17 17 17 17 17 17 16 16 16 16 16 16 16 15
17 17 17 17 17 17 17 17 17 17 17 17 17 17 17 16 17 17 17 17 17 17 17 17 17 17 17 17 17 16 16 16 16 16 16 16 16 16 16 16 15 15 15
17 17 17 17 17 17 16 16 16 16 16 16 16 16 16 16 16 16 16 16 16 16 16 16 16 16 16 16 16 16 16 16 16 16 16 16 16 15 15 15 15 15 15
17 17 16 16 16 16 16 16 16 16 16 16 16 16 16 16 16 16 16 16 16 16 16 16 15 16 16 16 16 16 15 15 15 15 15 15 15 15 15 15 15 15 14
16 16 16 16 16 16 16 16 16 16 16 16 15 15 15 15 15 15 15 15 15 15 15 15 15 15 15 15 15 15 15 15 15 15 15 15 14 14 14 14 14 14 14
16 16 16 16 16 16 16 16 16 15 15 15 15 15 15 15 15 15 15 15 15 15 14 14 14 14 14 14 14 14 14 14 14 14 14 14 14 14 14 14 14 13 13
16 16 15 15 15 15 15 15 15 15 15 15 15 15 14 14 14 14 14 14 14 14 14 14 14 13 13 13 13 13 13 13 13 13 13 13 13 13 13 13 13 13 13
15 15 15 15 15 15 15 15 15 14 14 14 14 14 14 14 14 14 13 13 13 13 13 13 13 13 13 13 13 12 12 12 12 12 12 12 12 12 12 12 12 12 12
15 15 14 14 14 14 14 14 14 14 14 14 13 13 13 13 13 13 13 13 13 13 13 12 12 12 12 12 12 11 11 11 11 11 11 11 11 11 11 11 11 11 11
Wind_Speed
4 6 5 6 8 8 8 5 4 4 3 3 2 2 2 5 10 12 13 16 15 14 12 11 10 10 10 9 9 9 8 8 8 8 8 7 7 7 7 6 6 7 6
5 5 4 4 5 7 7 5 4 4 3 2 2 2 2 4 8 12 13 14 14 14 13 12 11 11 10 10 10 9 9 9 8 8 8 8 8 8 7 6 7 7 6
8 6 4 4 4 6 6 4 4 4 3 4 3 2 2 3 6 9 14 14 13 13 13 13 12 12 11 11 11 10 9 9 9 9 9 9 9 9 8 7 7 7 7
9 6 4 5 6 6 4 3 3 3 3 3 3 3 2 2 4 7 11 13 14 13 14 15 14 13 12 12 12 11 11 11 10 10 10 10 10 10 10 9 9 8 8
9 6 3 3 6 4 3 5 4 3 2 2 3 3 3 4 4 6 7 11 13 15 15 16 17 15 14 14 13 13 13 12 12 12 12 11 11 11 11 11 10 10 10
10 8 4 5 5 4 4 2 3 2 1 2 3 3 3 3 4 4 6 7 11 14 16 16 16 15 17 16 15 14 14 14 14 13 13 12 12 12 12 12 12 11 11
11 8 5 6 4 4 5 5 3 3 3 3 2 2 2 4 5 4 4 4 6 10 13 17 16 15 15 18 18 16 15 15 15 14 14 14 13 13 14 14 13 13 13
10 10 5 6 6 4 4 4 4 2 3 3 2 2 1 2 2 5 4 5 6 6 8 14 15 16 15 15 17 20 18 17 16 15 15 15 14 14 14 15 14 14 14
10 8 7 6 6 6 6 5 5 5 4 3 3 2 2 2 2 2 5 5 5 4 5 7 12 15 15 16 16 21 21 19 17 16 16 16 15 15 15 15 15 15 15
9 9 8 7 6 5 6 7 7 5 5 4 3 3 2 1 1 1 2 3 5 5 5 6 8 12 14 13 15 18 22 21 19 18 17 17 16 16 16 15 15 14 14
8 9 8 7 7 6 6 7 5 5 5 5 4 3 3 2 3 2 2 2 3 4 5 5 4 8 14 14 14 17 22 22 21 19 17 17 16 16 16 16 15 15 15
7 8 8 7 7 7 6 6 6 7 5 5 3 3 2 3 3 3 3 3 4 4 5 5 5 5 11 14 15 18 23 23 21 20 18 17 16 15 15 15 15 15 15
7 9 9 7 7 7 6 6 7 6 7 6 5 4 3 3 3 3 3 3 3 3 3 4 4 6 9 11 13 17 21 23 21 20 19 18 17 16 15 15 15 15 15
7 8 9 8 8 7 8 7 6 7 6 6 7 6 3 4 3 3 3 2 2 2 2 4 3 4 6 9 12 17 16 22 22 21 19 18 18 17 16 16 16 16 16
7 8 9 9 8 7 7 6 5 6 6 6 6 6 5 4 4 3 2 1 2 2 3 4 2 3 5 7 13 14 12 19 21 21 20 19 18 18 17 17 16 16 16
6 6 7 8 8 7 7 6 5 5 6 5 4 4 4 4 3 3 2 2 2 2 3 3 3 2 2 4 10 10 9 16 21 21 20 20 19 18 18 17 17 17 17
4 5 6 6 6 6 6 6 5 5 6 5 5 5 5 3 3 3 2 2 2 2 2 3 2 1 2 1 3 5 8 10 13 19 20 21 20 19 19 18 18 17 17
4 4 4 4 5 6 6 6 6 6 6 5 5 4 4 4 4 3 3 3 2 2 2 3 2 2 2 2 3 4 5 7 7 13 19 20 20 20 19 19 18 18 17
4 4 4 4 4 4 5 5 5 5 5 4 4 4 4 4 4 4 3 3 2 2 2 2 3 2 2 2 2 3 4 3 6 8 13 17 18 19 19 18 18 17 16
3 3 4 4 3 3 4 4 4 4 4 3 3 3 3 3 4 4 3 2 2 3 3 2 3 3 2 1 0 1 3 2 3 5 3 7 11 15 17 17 16 16 16
3 3 3 3 3 3 3 4 4 4 3 3 2 2 2 2 1 1 1 1 2 1 2 3 3 2 2 1 1 2 3 3 3 2 2 2 3 5 8 11 14 15 16
3 3 3 4 3 1 2 4 4 3 3 2 1 1 1 1 2 2 2 2 1 1 1 2 2 2 2 2 2 3 3 3 3 2 2 4 2 3 3 5 8 12 14
4 4 4 4 5 5 6 6 6 4 4 3 2 2 1 2 3 1 1 2 1 1 1 1 2 3 3 3 3 3 3 4 4 4 3 4 3 3 2 4 5 7 10
5 5 4 5 6 6 6 6 5 4 4 5 5 4 3 4 4 4 2 1 1 1 0 1 0 1 1 2 2 3 4 5 5 3 2 3 3 3 4 4 7 8 9
6 6 6 6 7 7 6 6 4 4 5 6 6 6 6 6 7 7 3 3 2 2 3 2 1 1 1 3 3 2 3 4 5 4 3 2 3 4 4 4 6 7 8
7 7 8 8 8 8 8 8 6 4 5 5 5 7 10 8 9 8 4 4 3 3 3 2 1 2 2 2 2 2 3 4 4 4 4 4 4 4 4 3 3 5 7
Wind_Direction
159 147 154 167 180 172 175 187 186 152 147 160 187 158 97 98 118 130 145 156 157 161 166 169 170 171 171 172 172 173 172 172 173 172 171 171 170 170 170 169 171 171 171
150 142 155 175 182 170 171 172 169 152 179 171 187 153 125 119 120 137 151 162 167 170 176 179 181 183 182 183 182 184 183 183 182 182 184 183 183 183 183 183 184 185 188
152 157 159 180 184 161 157 166 170 174 187 182 182 163 140 130 139 147 154 162 171 180 184 187 189 190 191 191 191 191 193 193 193 193 195 196 197 196 196 198 198 199 200
162 174 172 183 171 159 166 161 194 198 195 180 169 179 158 154 166 170 166 172 175 181 189 195 195 196 197 199 199 199 202 203 203 203 204 207 207 207 208 210 211 211 211
176 189 192 166 171 166 179 191 186 193 182 185 191 180 193 195 184 197 183 182 180 175 181 194 198 199 200 204 206 207 208 208 210 211 212 214 215 216 216 219 220 221 222
186 196 188 177 191 174 179 178 157 167 172 202 239 192 204 201 198 197 196 191 181 182 183 182 191 203 207 208 210 212 213 212 213 214 216 218 220 221 222 223 225 226 228
188 200 198 171 194 187 181 174 172 185 212 205 207 218 225 223 209 195 197 189 191 189 177 173 187 194 201 212 213 214 215 215 215 216 218 220 223 224 224 225 226 228 231
189 198 200 183 187 188 187 184 167 185 226 206 198 200 249 272 240 210 187 198 202 189 183 185 191 189 192 193 210 214 216 217 217 219 220 222 224 226 227 228 228 231 234
196 205 185 199 188 192 188 191 183 195 221 223 214 188 192 213 220 239 214 207 188 189 195 191 191 191 196 190 197 210 213 215 218 221 222 222 224 226 229 230 230 233 236
202 201 193 195 200 205 182 193 194 201 206 229 231 226 223 158 172 220 246 211 194 198 208 210 204 194 199 194 193 197 206 211 215 220 223 223 224 226 228 231 232 234 237
209 204 198 194 199 208 201 205 184 194 201 220 221 210 221 203 215 213 231 228 220 210 203 208 209 194 197 197 194 194 199 206 211 216 221 223 226 227 229 231 233 235 238
210 213 203 197 201 209 204 198 192 201 215 231 236 228 207 203 215 224 224 220 222 227 207 201 201 192 194 197 203 199 196 201 207 212 217 222 226 229 231 234 236 238 240
207 206 206 197 204 206 201 200 198 206 209 220 226 236 235 236 229 229 229 235 233 229 208 205 198 196 207 196 193 190 191 196 203 210 215 219 224 228 231 234 236 239 242
212 200 197 194 200 203 207 197 200 203 208 213 224 226 241 253 254 246 231 236 260 261 233 228 203 195 201 186 179 178 190 199 204 210 214 219 224 228 232 235 238 240 242
216 204 196 196 199 201 208 194 202 205 199 203 223 226 226 249 261 269 268 233 227 256 267 254 223 206 187 174 172 187 193 202 208 213 217 221 225 228 232 236 240 241 242
223 201 200 197 195 197 202 199 199 205 198 199 212 226 223 242 260 264 263 252 231 235 259 267 249 230 200 191 178 197 211 203 208 214 218 222 226 229 232 236 240 241 243
210 204 200 194 192 188 194 194 198 198 196 198 208 212 214 231 267 278 262 250 242 226 257 276 269 252 214 197 175 225 224 205 213 216 218 221 224 228 231 234 237 240 243
192 193 194 192 192 191 192 188 194 193 190 193 202 204 208 218 229 259 277 265 247 232 235 265 299 292 243 210 204 233 249 238 224 221 219 221 224 227 231 234 237 240 242
175 186 188 189 188 187 187 187 190 188 185 191 196 199 208 223 233 240 248 276 289 279 238 241 260 267 261 249 233 248 259 270 261 244 222 221 225 229 233 237 239 240 240
172 183 182 177 171 171 173 179 181 181 177 182 191 198 204 221 230 238 239 256 273 288 293 284 275 275 272 278 269 277 283 288 283 279 266 228 228 234 237 238 239 238 239
151 138 134 134 140 158 177 174 170 169 159 158 166 178 178 170 162 211 242 249 268 279 294 290 286 300 308 336 337 309 293 299 299 300 322 284 245 238 237 240 238 237 237
103 105 108 106 105 129 112 125 135 129 123 130 142 152 134 97 119 140 134 102 92 207 289 304 305 307 319 340 341 327 326 323 307 317 325 298 275 254 244 236 227 229 232
102 93 93 99 91 68 66 85 90 95 99 103 101 90 1 23 43 0 183 163 115 107 195 279 318 319 332 349 339 327 318 309 288 289 291 282 289 285 279 262 237 238 236
91 89 86 89 86 70 69 74 79 98 89 81 73 72 71 52 21 8 5 46 62 32 247 211 33 324 335 341 330 313 302 300 291 295 308 290 308 311 314 291 270 251 245
90 83 77 77 79 64 54 67 81 103 94 81 73 65 66 61 31 26 36 40 38 38 67 86 133 243 295 318 334 334 331 322 314 318 350 330 324 322 317 315 311 285 273
89 83 75 70 73 70 57 62 74 90 95 89 80 70 61 55 38 28 33 36 29 3 355 344 295 280 283 320 334 339 351 342 332 328 359 353 337 337 316 314 328 309 289
Height
1556 1557 1559 1560 1562 1563 1565 1566 1567 1569 1571 1573 1574 1575 1576 1576 1576 1576 1577 1578 1578 1579 1580 1581 1582 1583 1584 1585 1586 1587 1588 1589 1590 1591 1592 1593 1594 1594 1595 1596 1597 1597 1598
1555 1557 1559 1560 1562 1563 1565 1567 1568 1569 1571 1572 1573 1575 1576 1576 1576 1576 1576 1577 1578 1579 1580 1581 1582 1583 1583 1584 1586 1587 1588 1589 1589 1590 1591 1592 1593 1594 1595 1595 1596 1597 1598
1554 1556 1558 1559 1561 1563 1565 1566 1568 1569 1571 1572 1573 1574 1575 1575 1576 1576 1576 1577 1577 1578 1579 1580 1581 1582 1583 1584 1585 1586 1587 1588 1589 1589 1590 1591 1592 1593 1594 1595 1595 1596 1597
1553 1555 1557 1559 1560 1562 1564 1565 1567 1568 1570 1571 1572 1573 1574 1575 1575 1576 1576 1576 1576 1577 1578 1579 1580 1581 1582 1583 1583 1584 1585 1586 1587 1588 1589 1590 1591 1592 1593 1593 1594 1595 1596
1551 1553 1555 1557 1559 1561 1562 1564 1566 1567 1569 1570 1571 1572 1573 1573 1574 1575 1575 1575 1576 1576 1577 1578 1579 1580 1580 1581 1582 1583 1584 1585 1586 1587 1588 1588 1589 1590 1591 1592 1593 1593 1594
1549 1551 1553 1555 1558 1559 1561 1562 1564 1566 1567 1568 1570 1570 1571 1572 1572 1573 1574 1574 1575 1575 1575 1576 1577 1578 1579 1580 1581 1581 1582 1583 1584 1585 1586 1586 1587 1588 1589 1590 1591 1591 1592
1546 1548 1551 1553 1555 1557 1559 1561 1562 1564 1565 1567 1568 1569 1570 1570 1571 1571 1572 1573 1574 1574 1575 1575 1575 1576 1577 1578 1579 1580 1580 1581 1582 1583 1583 1584 1585 1586 1587 1588 1588 1589 1590
1544 1546 1548 1550 1552 1554 1556 1558 1560 1561 1563 1565 1567 1567 1568 1569 1569 1570 1570 1571 1572 1573 1573 1573 1574 1574 1575 1576 1577 1577 1578 1579 1579 1580 1581 1582 1583 1583 1584 1585 1586 1586 1587
1541 1543 1545 1547 1550 1552 1553 1555 1557 1559 1561 1563 1565 1566 1566 1566 1567 1568 1568 1569 1570 1571 1572 1572 1573 1573 1573 1573 1574 1575 1576 1576 1577 1577 1578 1579 1580 1580 1581 1582 1583 1583 1584
1537 1540 1542 1544 1546 1549 1551 1553 1554 1556 1559 1560 1562 1563 1564 1564 1565 1566 1567 1567 1568 1569 1569 1570 1571 1570 1571 1571 1572 1572 1573 1574 1574 1575 1575 1576 1577 1578 1578 1579 1579 1580 1580
1534 1536 1538 1541 1543 1545 1547 1550 1552 1553 1555 1557 1559 1560 1562 1563 1564 1565 1564 1565 1566 1566 1567 1567 1568 1568 1569 1569 1569 1570 1570 1571 1572 1572 1573 1573 1574 1574 1575 1575 1576 1576 1577
1530 1532 1534 1537 1539 1542 1544 1546 1548 1550 1552 1554 1556 1557 1559 1560 1561 1562 1563 1563 1563 1564 1564 1565 1565 1566 1567 1567 1567 1567 1568 1569 1569 1570 1570 1570 1571 1571 1571 1572 1572 1573 1573
1526 1528 1530 1532 1535 1537 1540 1543 1545 1547 1549 1551 1552 1554 1556 1557 1559 1560 1560 1560 1561 1561 1561 1562 1562 1563 1564 1564 1565 1565 1565 1566 1566 1567 1567 1567 1567 1568 1568 1568 1569 1569 1569
1522 1524 1525 1528 1530 1533 1536 1539 1541 1543 1545 1547 1549 1551 1552 1554 1556 1557 1558 1558 1558 1558 1559 1559 1559 1560 1561 1561 1561 1562 1562 1563 1563 1564 1564 1564 1564 1564 1565 1565 1565 1565 1565
1517 1520 1522 1524 1526 1529 1532 1535 1537 1539 1541 1543 1545 1547 1548 1550 1552 1554 1555 1555 1556 1556 1556 1556 1557 1557 1558 1558 1558 1559 1559 1559 1560 1560 1560 1560 1560 1561 1561 1561 1561 1561 1561
1513 1515 1517 1520 1522 1525 1528 1531 1533 1535 1537 1539 1541 1543 1545 1547 1549 1550 1551 1552 1553 1554 1553 1553 1554 1554 1555 1556 1555 1556 1556 1556 1556 1556 1557 1557 1557 1556 1556 1557 1557 1557 1557
1509 1511 1513 1516 1518 1520 1523 1526 1529 1531 1533 1535 1537 1539 1541 1543 1545 1546 1548 1549 1549 1550 1550 1550 1551 1551 1551 1552 1552 1552 1552 1551 1552 1552 1552 1552 1552 1552 1552 1552 1552 1552 1551
1506 1508 1510 1512 1515 1517 1520 1522 1525 1527 1530 1532 1534 1536 1538 1539 1541 1543 1544 1545 1546 1546 1547 1547 1547 1547 1548 1548 1548 1548 1548 1548 1548 1547 1547 1547 1547 1547 1547 1547 1546 1546 1546
1504 1506 1508 1509 1511 1514 1516 1519 1522 1524 1526 1528 1531 1533 1534 1536 1537 1539 1540 1541 1542 1542 1543 1543 1543 1544 1544 1544 1544 1544 1544 1544 1544 1544 1543 1542 1542 1542 1542 1541 1541 1541 1540
1502 1504 1506 1507 1509 1511 1514 1516 1518 1521 1523 1525 1528 1529 1530 1532 1534 1535 1536 1537 1538 1539 1539 1539 1540 1540 1541 1540 1540 1540 1540 1541 1540 1540 1539 1538 1538 1537 1537 1536 1536 1536 1535
1501 1503 1504 1506 1508 1509 1511 1513 1516 1518 1521 1522 1524 1526 1528 1529 1531 1532 1533 1534 1534 1535 1535 1536 1536 1536 1537 1537 1537 1537 1536 1536 1536 1535 1534 1534 1533 1532 1532 1531 1531 1530 1530
1501 1502 1503 1504 1506 1508 1510 1512 1514 1516 1518 1520 1522 1523 1525 1527 1528 1529 1530 1531 1531 1532 1532 1532 1533 1533 1533 1533 1533 1533 1532 1532 1531 1531 1530 1529 1529 1528 1527 1526 1526 1525 1524
1500 1501 1503 1504 1505 1507 1509 1511 1513 1515 1517 1518 1520 1521 1522 1524 1525 1526 1527 1527 1528 1528 1529 1529 1529 1529 1530 1529 1529 1528 1528 1528 1527 1527 1526 1525 1525 1524 1523 1522 1521 1520 1519
1501 1502 1503 1504 1505 1507 1508 1510 1512 1514 1516 1517 1519 1520 1521 1522 1523 1524 1524 1524 1525 1525 1526 1526 1526 1526 1527 1526 1525 1525 1525 1524 1524 1524 1523 1522 1520 1519 1518 1517 1517 1515 1514
1502 1503 1504 1505 1506 1507 1509 1510 1512 1514 1515 1516 1518 1519 1520 1520 1521 1521 1522 1522 1523 1523 1523 1524 1524 1523 1523 1523 1523 1522 1521 1521 1520 1520 1520 1518 1516 1515 1514 1513 1512 1510 1509
1504 1505 1505 1506 1507 1508 1509 1511 1513 1514 1515 1516 1518 1519 1519 1520 1520 1521 1521 1521 1521 1521 1522 1522 1522 1521 1521 1521 1520 1520 1519 1518 1517 1517 1516 1515 1513 1511 1509 1508 1507 1506 1504